This demonstration page uses our WeatherBlox Daily Observations layout. Learn more.

Left ArrowRight Arrow

36.17497, -115.13722

Hourly Observations for October 31, 2016

Temp ( °F °C ) Dew Point ( °F °C ) Humidity (%) Winds ( mph kmh ) Pressure ( in mb ) Visibility ( mi km ) Precip ( " mm )
12:53 am 00:53 Clear 65 18.3 46 7.8 51 51 S 10 17 29.91 1013 10 16.0934 0 0
1:53 am 01:53 Clear 64 17.8 45 7.2 50 50 SSW 17 28 29.9 1013 10 16.0934 0 0
2:53 am 02:53 Clear 63 17.2 46 7.8 54 54 S 12 19 29.91 1013 10 16.0934 0 0
3:53 am 03:53 Clear 62 16.7 46 7.8 56 56 SSW 18 30 29.9 1012 10 16.0934 0 0
4:53 am 04:53 Clear 62 16.7 44 6.7 52 52 SSW 16 26 29.91 1013 10 16.0934 0 0
5:53 am 05:53 Clear 59 15 45 7.2 60 60 NW 5 7 29.94 1014 10 16.0934 0 0
6:53 am 06:53 Clear 58 14.4 44 6.7 60 60 N 6 9 29.97 1015 10 16.0934 0 0
7:53 am 07:53 Sunny 59 15 45 7.2 60 60 N 7 11 29.98 1015 10 16.0934 0 0
8:53 am 08:53 Sunny 62 16.7 44 6.7 52 52 NE 5 7 29.99 1016 10 16.0934 0 0
9:53 am 09:53 Sunny 67 19.4 42 5.6 41 41 N 12 19 29.98 1015 10 16.0934 0 0
10:53 am 10:53 Sunny 68 20 43 6.1 40 40 N 8 13 29.98 1015 10 16.0934 0 0
11:53 am 11:53 Sunny 70 21.1 43 6.1 38 38 ESE 6 9 29.97 1015 10 16.0934 0 0
12:53 pm 12:53 Sunny 70 21.1 43 6.1 38 38 SE 6 9 29.94 1014 10 16.0934 0 0
1:53 pm 13:53 Sunny 71 21.7 43 6.1 36 36 VRB 5 7 29.91 1013 10 16.0934 0 0
2:53 pm 14:53 Sunny 72 22.2 43 6.1 35 35 ESE 6 9 29.89 1012 10 16.0934 0 0
3:53 pm 15:53 Sunny 72 22.2 42 5.6 34 34 ESE 7 11 29.88 1012 10 16.0934 0 0
4:53 pm 16:53 Sunny 71 21.7 42 5.6 35 35 SE 6 9 29.86 1011 10 16.0934 0 0
5:53 pm 17:53 Clear 70 21.1 42 5.6 37 37 S 5 7 29.86 1011 10 16.0934 0 0
6:53 pm 18:53 Clear 68 20 41 5 38 38 SE 5 7 29.87 1011 10 16.0934 0 0
7:53 pm 19:53 Clear 68 20 36 2.2 31 31 S 3 6 29.87 1011 10 16.0934 0 0
8:53 pm 20:53 Clear 66 18.9 40 4.4 39 39 SW 7 11 29.87 1012 10 16.0934 0 0
9:53 pm 21:53 Clear 64 17.8 42 5.6 45 45 SSW 6 9 29.87 1011 10 16.0934 0 0
10:53 pm 22:53 Clear 63 17.2 40 4.4 43 43 SSW 9 15 29.86 1011 10 16.0934 0 0
11:53 pm 23:53 Clear 62 16.7 40 4.4 44 44 SW 5 7 29.85 1011 10 16.0934 0 0

Powered by AerisWeather